User: anonymous   Login
Location: Unspecified
(0.0000°N, 0.0000°E)
Time: 18:20:20
(UTC+00:00)
Language:

STARLINK-11358 [DTC] - Orbit

View from above orbital plane
View from above orbital plane
View from above satellite
View from above satellite

Ground track
Ground track

The orbit is defined by the following mean orbital elements,

1 62558U          26145.05656516 +.00000000 +00000-0 +10354-2 0 00006
2 62558  42.9986  39.5147 0001915 274.5740  85.4909 15.70834955    02
Epoch (UTC): 25 May 2026 01:21:27
Eccentricity: 0.0001915
inclination: 42.9986°
perigee height: 355 km
apogee height: 358 km
right ascension of ascending node: 39.5147°
argument of perigee: 274.5740°
revolutions per day: 15.70834955
mean anomaly at epoch: 85.4909°

The dashed part of the orbit path shows where the satellite is in the earth's shadow,  

DLR